CAPE
0 0 0 0 0 0 0 0 0 0 0 0 0 97 24 44 128 162 23 308 652 1125 1353 1338 1352 1435 1516 1575 1654 1751 1935 1998 2005 1942 1882 1871 1897 1908 1896 1861 1790 1672 1347 1338 1296 976 586 467 503
0 0 0 0 0 0 0 0 0 0 0 0 4 661 624 382 651 496 678 698 811 1243 1338 1243 1270 1355 1504 1532 1675 1809 2027 2003 1993 1982 1962 1936 1945 1921 1910 1862 1757 1736 1533 1279 1174 859 524 567 1062
0 0 0 0 0 0 0 0 0 0 0 0 0 249 783 404 624 524 612 693 1077 1272 1379 1238 1211 1273 1449 1559 1692 1818 1883 1827 1895 1912 1995 1996 2001 1978 1882 1730 1713 1766 1643 1186 981 776 562 674 746
0 0 0 0 0 0 0 0 0 0 0 0 252 571 584 753 972 682 679 931 1021 1280 1332 1160 1121 1213 1398 1607 1751 1801 1737 1662 1735 1811 1921 1998 1968 1878 1735 1609 1737 1789 1682 1237 1004 817 702 517 243
0 0 0 0 0 0 0 0 0 0 0 0 69 470 1001 873 675 739 753 767 1073 1163 1139 1163 1065 1212 1426 1713 1769 1648 1574 1544 1637 1742 1799 1837 1793 1660 1546 1508 1647 1668 1583 1267 965 703 429 113 2
0 0 0 0 0 0 0 0 0 0 0 0 329 611 906 617 601 569 473 703 961 973 1019 1139 1096 1225 1403 1620 1562 1446 1411 1438 1514 1594 1626 1623 1457 1341 1347 1351 1342 1318 1188 912 555 195 27 0 0
0 0 0 0 0 0 0 0 0 0 0 0 270 739 787 500 487 415 250 828 774 869 993 1174 1294 1254 1284 1324 1235 1154 1211 1280 1362 1419 1411 1285 1018 990 1107 1093 1020 813 547 298 92 2 0 0 0
0 0 0 0 0 0 0 0 0 0 0 0 467 882 905 575 285 184 583 696 758 814 974 1017 1229 1257 1191 1087 919 919 987 1083 1187 1218 1128 928 831 852 831 772 700 449 230 84 22 0 0 0 0
0 0 0 0 0 0 0 0 0 0 0 0 31 658 797 347 338 523 601 544 615 717 759 907 998 1248 1128 985 911 761 840 889 1006 1035 859 593 602 622 636 472 423 258 78 21 0 0 0 0 0
0 0 0 0 0 0 0 0 0 0 0 356 751 775 746 385 574 606 606 515 520 589 566 734 764 792 840 1016 971 778 879 853 906 826 540 400 355 379 414 332 212 93 8 0 0 0 0 0 0
0 0 0 0 0 0 0 0 0 0 0 308 795 902 886 630 576 646 640 538 462 453 666 669 692 706 730 966 735 693 702 666 635 460 319 180 217 295 177 74 45 0 0 0 0 0 0 0 0
0 0 0 0 0 0 0 0 0 0 0 21 795 884 987 936 758 681 734 567 393 350 557 676 756 601 845 710 525 567 506 493 473 304 128 66 52 33 0 0 0 0 0 0 0 0 0 0 0
0 0 0 0 0 0 0 0 0 0 0 0 740 801 980 1023 988 839 689 680 400 260 360 554 780 827 551 560 512 423 382 367 324 208 102 26 28 6 0 0 0 0 0 0 0 0 0 0 0
0 0 0 0 0 0 0 0 0 0 0 0 404 730 823 976 956 857 660 768 536 371 277 377 648 688 401 528 455 367 275 249 174 216 115 67 105 0 0 0 0 0 0 0 0 0 0 0 70
0 0 0 0 0 0 0 0 0 0 0 0 14 1117 869 850 811 753 789 889 743 534 333 324 440 481 340 349 308 281 245 217 248 258 168 85 183 46 33 0 0 0 0 0 0 0 4 128 273
0 0 0 0 0 0 0 0 0 0 0 0 0 171 1304 1201 956 758 771 832 1039 692 490 429 471 399 410 191 213 249 213 308 246 349 500 256 222 365 102 89 8 0 0 0 0 2 92 465 649
0 0 0 0 0 0 0 0 0 0 0 0 0 0 365 943 1275 1144 838 801 1071 982 692 607 532 444 369 407 101 234 297 258 377 510 613 609 432 587 379 107 122 2 0 0 23 61 308 628 677
0 0 0 0 0 0 0 0 0 0 0 0 0 0 0 12 46 1030 1023 953 904 1176 940 714 848 661 439 833 432 302 439 368 505 677 813 825 768 553 530 380 117 57 50 40 50 152 233 411 695
0 0 0 0 0 0 0 0 0 0 0 0 0 0 0 0 0 0 416 635 1123 1207 1141 908 971 906 781 588 971 681 636 822 716 869 1039 983 912 686 667 435 139 72 55 38 40 104 460 583 653
3 0 0 0 0 0 0 0 0 0 0 0 0 0 0 0 0 0 0 149 1254 1412 1284 1188 1063 1123 1002 845 1000 1208 928 910 1104 1016 1181 1201 1037 837 899 467 241 109 26 21 53 280 395 378 258
35 0 0 0 0 0 0 0 0 0 0 0 0 0 0 0 0 0 0 34 998 1383 1476 1260 1278 1348 1215 1130 951 884 570 556 776 754 1038 1212 1188 945 995 603 290 127 29 6 36 291 397 350 182
4 0 0 0 0 0 0 0 0 0 0 0 0 0 0 0 0 0 0 0 790 1236 1419 1346 1284 1529 1450 1384 1104 970 1168 1073 1200 1220 1176 1107 1010 1087 907 725 366 197 32 1 62 196 219 195 348
11 5 39 23 11 0 0 0 0 0 0 0 0 0 0 0 0 0 0 0 213 1062 1269 1331 1241 1312 1533 1445 1330 967 1078 1341 1096 977 843 760 820 749 722 703 505 125 58 33 55 186 214 142 120
5 18 1 11 40 25 0 0 0 0 0 0 0 0 0 0 0 0 0 0 0 752 1079 1217 1216 1135 1402 1381 1323 1155 1042 1029 1059 864 615 693 700 840 571 550 603 390 151 88 120 165 178 173 122
37 32 7 2 18 33 0 0 0 0 0 0 0 0 0 0 0 0 0 0 0 121 846 1062 1111 1076 1230 1333 1251 1173 1067 951 939 805 709 525 647 907 841 614 522 474 283 214 258 235 200 73 81
62 14 1 0 14 1 0 19 0 0 0 0 0 0 0 0 0 0 0 0 0 0 676 1023 1123 1103 1217 1317 1263 1191 1085 960 934 661 718 624 566 847 865 671 544 477 253 283 266 159 84 21 10
3 19 1 5 5 0 0 0 0 0 0 0 0 0 0 0 0 0 0 0 0 0 507 1091 1161 1212 1175 1329 1340 1240 1106 934 884 625 582 576 562 710 686 575 510 240 252 251 112 101 20 0 0
14 0 3 2 0 0 0 0 0 0 0 0 0 0 0 0 0 0 0 0 0 0 175 1179 1262 1269 1210 1225 1326 1315 1185 939 744 558 495 506 482 492 418 414 317 172 213 121 51 0 0 0 0
18 53 18 5 1 0 8 0 0 0 0 0 0 0 0 0 0 0 0 0 0 0 0 766 1248 1371 1307 1221 1307 1296 1208 1007 632 550 464 420 368 284 284 387 230 197 128 5 0 0 0 0 0
13 3 10 2 0 4 13 0 0 0 0 0 0 0 0 0 0 0 0 0 0 0 0 0 467 1273 1382 1391 1400 1360 1216 995 658 665 530 366 310 274 394 357 252 190 64 0 0 0 0 0 0
CIN
-0 -0 -0 -0 -0 -0 -0 -0 -0 -0 -0 -0 -0 -213 -142 -244 -164 -132 -731 -721 -702 -546 -442 -419 -429 -391 -339 -275 -234 -193 -153 -144 -135 -117 -98 -87 -79 -63 -44 -34 -28 -24 -38 -31 -33 -49 -82 -117 -114
-0 -0 -0 -0 -0 -0 -0 -0 -0 -0 -0 -0 -14 -215 -219 -242 -315 -620 -564 -665 -631 -483 -425 -437 -446 -414 -351 -297 -242 -190 -141 -133 -131 -128 -101 -80 -65 -56 -43 -39 -42 -31 -28 -42 -37 -60 -110 -110 -38
-0 -0 -0 -0 -0 -0 -0 -0 -0 -0 -0 -0 -0 -257 -214 -272 -430 -545 -650 -660 -559 -440 -394 -425 -450 -421 -347 -287 -250 -198 -155 -163 -150 -146 -109 -83 -61 -51 -58 -66 -53 -28 -29 -51 -62 -88 -114 -113 -89
-0 -0 -0 -0 -0 -0 -0 -0 -0 -0 -0 -0 -195 -155 -232 -261 -295 -603 -665 -600 -539 -437 -403 -438 -455 -413 -334 -273 -233 -203 -190 -189 -172 -155 -121 -89 -73 -67 -85 -95 -61 -33 -21 -67 -88 -101 -114 -178 -272
-0 -0 -0 -0 -0 -0 -0 -0 -0 -0 -0 -0 -162 -185 -182 -275 -502 -619 -627 -606 -535 -455 -448 -419 -446 -385 -297 -230 -222 -238 -240 -215 -181 -157 -146 -110 -114 -110 -124 -122 -95 -58 -46 -79 -129 -155 -223 -358 -128
-0 -0 -0 -0 -0 -0 -0 -0 -0 -0 -0 -0 -172 -170 -188 -393 -513 -581 -617 -582 -543 -543 -469 -412 -399 -345 -287 -231 -245 -275 -275 -246 -201 -173 -165 -143 -177 -178 -161 -148 -140 -129 -137 -173 -246 -311 -434 -0 -0
-0 -0 -0 -0 -0 -0 -0 -0 -0 -0 -0 -0 -180 -173 -250 -353 -476 -538 -625 -556 -556 -509 -456 -384 -321 -302 -289 -288 -319 -340 -316 -280 -234 -198 -194 -211 -261 -263 -213 -203 -201 -239 -286 -342 -425 -192 -0 -0 -0
-0 -0 -0 -0 -0 -0 -0 -0 -0 -0 -0 -0 -179 -174 -190 -346 -485 -584 -530 -525 -506 -462 -416 -401 -322 -279 -286 -320 -387 -394 -364 -319 -267 -234 -231 -281 -294 -292 -276 -276 -272 -330 -372 -444 -556 -0 -0 -0 -0
-0 -0 -0 -0 -0 -0 -0 -0 -0 -0 -0 -0 -143 -175 -223 -452 -527 -515 -471 -491 -495 -464 -451 -401 -351 -256 -272 -323 -356 -419 -393 -361 -302 -268 -293 -354 -344 -330 -319 -358 -351 -375 -460 -545 -0 -0 -0 -0 -0
-0 -0 -0 -0 -0 -0 -0 -0 -0 -0 -0 -179 -213 -237 -305 -419 -491 -497 -478 -530 -529 -513 -504 -438 -392 -350 -320 -269 -302 -375 -352 -350 -318 -319 -389 -411 -415 -388 -363 -379 -403 -429 -518 -0 -0 -0 -0 -0 -0
-0 -0 -0 -0 -0 -0 -0 -0 -0 -0 -0 -135 -212 -206 -281 -349 -401 -447 -460 -508 -560 -563 -468 -444 -403 -363 -348 -284 -341 -354 -379 -387 -382 -427 -472 -525 -448 -400 -439 -488 -498 -0 -76 -0 -0 -0 -0 -0 -0
-0 -0 -0 -0 -0 -0 -0 -0 -0 -0 -0 -166 -246 -229 -234 -268 -353 -434 -456 -482 -558 -577 -501 -433 -384 -420 -320 -347 -409 -398 -416 -426 -424 -480 -562 -614 -585 -501 -0 -0 -0 -0 -0 -0 -0 -0 -0 -0 -0
-0 -0 -0 -0 -0 -0 -0 -0 -0 -0 -0 -0 -176 -185 -203 -227 -264 -353 -423 -441 -516 -550 -532 -465 -371 -349 -414 -388 -400 -438 -445 -450 -467 -509 -580 -670 -635 -431 -0 -0 -0 -0 -0 -0 -0 -0 -0 -0 -0
-0 -0 -0 -0 -0 -0 -0 -0 -0 -0 -0 -0 -139 -163 -176 -204 -251 -263 -338 -414 -469 -485 -553 -517 -417 -374 -450 -405 -417 -458 -491 -480 -518 -502 -580 -630 -535 -0 -0 -0 -0 -0 -0 -0 -0 -0 -0 -108 -311
-0 -0 -0 -0 -0 -0 -0 -0 -0 -0 -0 -0 -10 -124 -169 -181 -213 -247 -288 -377 -431 -478 -540 -546 -490 -442 -471 -449 -447 -457 -492 -500 -476 -488 -541 -588 -504 -564 -547 -0 -0 -0 -0 -0 -0 -0 -380 -275 -192
-0 -0 -0 -0 -0 -0 -0 -0 -0 -0 -0 -0 -0 -128 -117 -141 -167 -196 -237 -289 -362 -406 -489 -523 -469 -482 -460 -505 -463 -428 -451 -454 -471 -427 -408 -495 -487 -414 -491 -495 -237 -0 -0 -0 -0 -64 -298 -189 -136
-0 -0 -0 -0 -0 -0 -0 -0 -0 -0 -0 -0 -0 -0 -140 -129 -112 -130 -190 -260 -312 -369 -425 -470 -470 -478 -503 -427 -497 -417 -402 -435 -426 -375 -346 -370 -416 -354 -392 -484 -449 -46 -0 -0 -413 -332 -238 -151 -110
-0 -0 -0 -0 -0 -0 -0 -0 -0 -0 -0 -0 -0 -0 -0 -50 -334 -115 -135 -178 -276 -345 -377 -450 -453 -444 -424 -330 -368 -379 -338 -370 -361 -346 -312 -296 -312 -343 -349 -341 -441 -464 -435 -442 -411 -282 -269 -176 -83
-0 -0 -0 -0 -0 -0 -0 -0 -0 -0 -0 -0 -0 -0 -0 -0 -0 -1 -182 -183 -185 -277 -346 -405 -398 -400 -322 -360 -285 -306 -355 -311 -335 -322 -272 -256 -272 -316 -294 -331 -397 -460 -432 -409 -392 -302 -155 -135 -132
-0 -0 -0 -0 -0 -0 -0 -0 -0 -0 -0 -0 -0 -0 -0 -0 -0 -0 -0 -216 -173 -240 -305 -338 -390 -381 -347 -343 -328 -245 -272 -297 -250 -267 -235 -208 -226 -286 -253 -330 -362 -398 -445 -412 -372 -245 -207 -191 -230
-0 -0 -0 -0 -0 -0 -0 -0 -0 -0 -0 -0 -0 -0 -0 -0 -0 -0 -0 -239 -187 -203 -314 -313 -345 -368 -360 -322 -285 -274 -326 -356 -300 -341 -270 -259 -255 -294 -235 -327 -356 -396 -423 -463 -411 -261 -188 -199 -273
-0 -0 -0 -0 -0 -0 -0 -0 -0 -0 -0 -0 -0 -0 -0 -0 -0 -0 -0 -0 -210 -213 -299 -333 -323 -357 -342 -291 -272 -289 -302 -313 -304 -284 -265 -274 -297 -276 -299 -313 -359 -350 -454 -121 -387 -340 -286 -256 -195
-0 -13 -1 -0 -1 -0 -0 -0 -0 -0 -0 -0 -0 -0 -0 -0 -0 -0 -0 -0 -353 -243 -264 -355 -342 -370 -329 -330 -317 -343 -313 -302 -278 -256 -308 -333 -311 -331 -338 -326 -351 -428 -459 -468 -402 -342 -304 -281 -280
-0 -0 -0 -33 -2 -1 -0 -0 -0 -0 -0 -0 -0 -0 -0 -0 -0 -0 -0 -0 -0 -258 -268 -355 -361 -360 -338 -349 -338 -345 -354 -334 -282 -316 -398 -361 -341 -284 -356 -353 -323 -363 -425 -448 -388 -358 -321 -300 -292
-0 -0 -0 -10 -22 -9 -0 -0 -0 -0 -0 -0 -0 -0 -0 -0 -0 -0 -0 -0 -0 -251 -263 -335 -391 -380 -365 -359 -348 -377 -377 -346 -379 -403 -415 -431 -378 -296 -332 -372 -357 -355 -418 -399 -350 -334 -320 -385 -328
-0 -0 -0 -0 -5 -22 -0 -3 -0 -0 -0 -0 -0 -0 -0 -0 -0 -0 -0 -0 -0 -0 -325 -364 -396 -395 -397 -392 -377 -395 -400 -366 -369 -425 -418 -452 -455 -387 -324 -361 -336 -345 -430 -407 -358 -372 -430 -477 -459
-0 -0 -4 -0 -0 -0 -0 -0 -0 -0 -0 -0 -0 -0 -0 -0 -0 -0 -0 -0 -0 -0 -350 -345 -384 -402 -435 -449 -429 -406 -402 -355 -372 -448 -450 -476 -496 -431 -389 -383 -351 -418 -417 -388 -438 -422 -547 -0 -0
-0 -0 -0 -0 -0 -0 -0 -0 -0 -0 -0 -0 -0 -0 -0 -0 -0 -0 -0 -0 -0 -0 -417 -346 -388 -406 -451 -475 -446 -449 -444 -426 -408 -431 -460 -483 -518 -485 -485 -414 -398 -436 -399 -422 -466 -0 -0 -0 -0
-0 -0 -16 -0 -0 -0 -1 -0 -0 -0 -0 -0 -0 -0 -0 -0 -0 -0 -0 -0 -0 -0 -0 -388 -363 -378 -403 -457 -451 -423 -410 -397 -396 -413 -471 -484 -484 -511 -502 -419 -432 -394 -403 -473 -0 -0 -0 -0 -0
-32 -0 -1 -26 -0 -0 -8 -0 -0 -0 -0 -0 -0 -0 -0 -0 -0 -0 -0 -0 -0 -0 -0 -0 -439 -362 -383 -418 -410 -416 -440 -386 -402 -397 -446 -462 -478 -492 -435 -396 -368 -345 -457 -0 -0 -0 -0 -0 -0
Wind_Speed
6 6 1 4 4 5 6 9 5 9 7 2 2 7 18 9 12 6 2 12 18 19 17 17 22 23 22 20 19 19 19 20 20 18 17 17 17 17 16 16 15 15 15 15 13 12 12 14 12
5 3 4 2 5 2 8 6 16 18 11 3 3 6 5 2 4 8 5 13 22 16 15 15 22 23 23 21 20 19 19 19 19 19 18 16 16 16 16 15 15 14 14 13 12 11 10 10 10
2 3 4 4 5 8 7 7 7 8 11 9 6 4 5 8 8 9 11 17 20 17 13 14 20 21 22 20 20 19 18 18 18 19 18 17 16 15 15 15 14 13 14 13 12 10 8 7 8
3 4 3 2 12 10 7 10 17 13 14 6 7 8 4 2 6 9 18 19 18 15 14 15 17 20 20 21 20 19 18 16 16 17 18 17 16 15 14 13 13 14 13 13 11 9 6 5 5
3 3 2 4 13 10 8 14 10 14 13 8 4 3 4 5 17 21 19 18 19 13 13 17 14 18 19 20 20 19 18 16 15 16 17 16 16 15 13 12 13 12 12 12 11 8 5 3 3
0 3 2 10 18 12 10 8 10 14 15 5 7 7 3 12 19 17 18 16 15 17 15 17 15 17 18 19 18 18 18 16 14 14 15 15 15 14 12 11 12 12 12 11 10 8 6 3 1
4 3 5 6 11 9 17 4 8 22 14 6 15 7 5 9 13 16 16 15 14 13 16 15 13 14 15 16 17 16 16 16 14 13 13 14 13 13 12 12 11 11 11 11 10 9 7 3 1
5 3 5 7 11 18 6 4 6 7 11 5 12 8 9 12 14 12 14 13 14 13 14 16 15 12 12 12 17 15 15 15 14 13 11 12 12 12 12 12 11 11 10 10 9 8 6 4 2
3 4 13 18 13 19 8 8 12 8 4 2 7 7 14 20 19 17 12 9 11 12 14 15 16 13 11 10 12 15 17 16 14 12 12 10 6 7 10 9 11 11 11 10 9 7 6 4 2
8 10 21 6 17 18 16 7 16 9 14 5 9 14 22 23 21 20 16 14 13 15 16 15 15 15 15 10 11 9 11 9 9 8 9 5 6 5 7 8 11 11 10 10 9 7 5 1 1
6 22 14 16 18 14 20 19 4 7 9 8 17 22 21 23 20 20 16 16 14 15 11 16 16 14 15 12 9 6 5 6 6 8 8 6 5 4 4 3 3 4 7 4 5 4 2 3 3
9 15 17 21 18 14 19 16 16 6 19 5 25 29 25 24 23 22 19 18 16 15 14 14 17 16 14 10 9 10 7 7 6 7 8 7 4 4 4 4 4 4 3 5 4 2 3 4 4
14 18 14 16 18 22 18 22 21 18 12 0 18 22 24 22 20 16 16 16 15 16 14 15 13 13 10 13 9 8 8 8 8 8 8 6 6 6 5 5 5 4 4 4 4 4 4 4 4
6 10 15 17 22 22 20 23 7 22 10 7 17 21 21 20 19 14 15 17 19 17 17 16 15 13 12 11 11 9 9 9 8 8 9 9 7 7 7 6 6 5 5 4 5 5 4 4 3
16 20 16 20 17 19 12 20 19 19 11 8 10 18 22 23 22 22 23 21 22 19 20 20 18 15 14 13 12 10 10 10 9 9 10 12 9 9 9 7 6 6 6 6 4 4 3 3 4
11 11 18 27 20 24 9 25 23 14 14 12 10 12 19 21 25 23 22 22 21 19 22 21 18 20 18 14 12 10 10 9 9 9 9 13 12 10 10 8 7 7 5 5 5 4 4 4 5
10 16 25 26 23 16 15 18 21 12 14 14 9 10 16 17 21 22 23 22 23 22 21 21 21 21 20 15 12 11 12 10 9 9 9 12 12 13 10 8 8 7 6 6 5 4 4 4 4
17 25 20 31 22 20 20 19 17 12 14 13 10 9 11 17 18 20 21 21 23 22 22 22 19 20 19 13 11 9 9 10 9 10 11 13 10 11 8 8 9 8 6 5 4 5 3 4 5
24 22 31 24 10 9 21 17 17 15 15 15 11 11 9 12 16 19 18 21 22 21 22 22 20 20 15 13 13 12 13 11 10 10 14 14 12 11 10 8 8 7 9 7 7 4 4 2 3
29 26 26 19 15 19 13 19 18 19 14 19 16 12 14 14 10 12 18 19 22 23 23 22 23 22 20 15 14 10 10 9 9 8 10 14 14 12 11 9 8 8 5 6 6 5 3 2 3
26 31 30 26 13 18 16 20 12 18 20 14 20 17 17 17 15 14 14 20 24 24 24 24 24 24 22 21 12 6 4 4 4 8 10 13 15 14 14 9 8 7 7 7 6 6 7 5 2
13 30 31 26 14 19 18 14 25 18 17 23 20 20 20 13 15 17 16 18 25 26 23 26 25 24 22 21 18 19 16 13 13 11 9 11 13 15 14 11 9 9 6 7 8 6 5 5 5
9 18 25 22 21 21 15 14 14 22 20 25 24 24 21 16 18 20 17 18 24 26 23 23 25 24 23 23 22 19 18 15 10 8 10 11 11 13 13 13 12 10 8 7 9 7 6 4 5
18 23 19 14 17 22 26 18 15 17 32 27 23 21 17 21 17 18 20 19 19 22 23 22 25 25 24 24 23 24 24 18 13 13 11 11 8 10 12 13 14 13 10 10 9 8 10 7 5
20 13 6 11 10 11 24 24 27 26 22 24 22 21 20 17 16 18 17 15 14 23 24 21 23 24 24 25 24 24 23 21 22 17 14 13 11 10 15 15 14 12 11 10 9 9 8 8 7
18 20 4 7 10 9 19 22 32 32 8 23 14 10 15 18 19 17 17 15 16 16 22 24 25 25 25 25 25 22 23 15 14 16 13 13 13 13 13 14 13 14 12 10 10 7 7 9 7
2 15 13 5 4 5 6 5 35 23 22 25 12 17 14 11 12 16 13 12 14 17 24 26 27 27 26 27 24 22 20 19 18 19 16 14 14 12 14 15 14 11 12 12 11 9 8 7 5
3 7 7 10 7 5 4 18 22 20 29 16 7 8 7 7 8 9 8 11 14 19 23 26 28 30 28 27 24 22 23 22 19 15 18 17 16 15 14 15 14 13 13 12 12 8 7 9 6
6 6 6 1 5 5 3 8 23 9 6 14 17 15 12 13 12 9 9 9 11 9 16 21 24 27 26 25 24 21 19 19 17 16 17 16 14 15 16 17 16 15 14 12 11 11 12 12 10
3 3 9 4 6 5 5 9 6 2 2 5 5 12 17 20 22 18 10 10 9 11 13 19 20 22 23 24 23 22 19 17 18 17 17 15 17 17 17 17 17 16 16 15 14 13 12 14 13
Wind_Direction
128 148 105 52 52 67 253 255 287 291 307 262 157 138 166 183 165 206 126 130 127 144 152 155 143 139 137 139 134 131 129 127 123 118 114 114 114 112 111 111 112 112 114 113 111 111 109 104 100
130 143 40 86 111 209 265 217 247 254 240 283 164 118 78 114 88 123 108 141 137 141 150 154 145 142 141 142 138 138 136 132 129 125 123 121 119 120 120 119 118 119 119 117 119 117 109 106 100
112 187 98 153 179 206 219 226 219 291 296 202 139 77 101 147 114 134 129 135 132 140 148 151 145 143 142 143 142 140 140 138 136 133 131 129 128 128 126 124 121 122 121 125 122 116 114 98 94
200 20 5 172 242 246 224 282 289 307 316 267 119 92 60 257 137 137 133 135 130 140 145 141 145 144 146 146 144 143 142 143 140 137 134 135 134 132 129 126 125 125 126 125 119 115 110 99 71
19 67 219 233 254 260 252 258 290 282 275 244 133 135 83 16 119 130 137 141 136 134 140 149 145 146 147 148 147 147 145 146 144 142 138 140 135 134 134 133 126 125 124 122 119 120 118 99 40
280 113 158 240 256 271 271 259 282 279 255 177 96 112 112 130 131 144 141 139 139 136 145 154 146 147 150 150 149 148 148 147 147 145 141 141 138 138 136 130 127 124 123 126 127 135 134 137 72
168 114 230 239 268 286 261 206 254 273 249 208 139 100 128 158 143 140 136 130 127 134 146 154 150 151 153 152 151 151 149 147 148 146 146 142 141 139 138 135 134 131 136 138 141 148 148 163 139
159 138 244 226 248 269 262 237 263 324 223 92 141 153 179 167 143 120 127 126 129 140 147 156 161 159 161 160 154 150 147 148 148 149 147 142 144 143 143 141 142 142 146 144 151 159 155 172 239
148 197 234 229 227 243 293 321 300 290 256 123 173 161 147 136 126 123 128 123 132 146 154 159 164 165 162 160 161 153 152 150 150 149 146 143 147 150 145 148 152 156 154 156 165 169 175 197 279
189 214 233 227 238 266 289 299 300 332 287 35 71 104 123 135 141 145 161 157 158 160 163 162 164 167 166 169 162 158 156 157 157 158 154 151 153 149 150 157 161 160 164 169 173 179 198 215 286
224 239 240 251 253 267 278 276 266 289 287 183 146 144 147 148 153 155 166 172 168 162 163 168 164 164 168 167 165 166 159 155 158 158 160 152 156 157 150 149 163 160 173 176 181 188 204 224 238
253 252 234 256 263 262 264 279 285 269 265 237 153 159 161 164 166 166 167 169 165 168 166 167 168 166 167 162 170 169 166 163 165 169 165 159 159 160 160 160 173 170 175 184 185 194 206 232 246
240 253 257 253 256 255 268 265 261 272 261 121 165 159 169 174 180 172 164 156 158 169 169 169 166 167 157 167 168 166 171 170 172 168 174 167 163 173 164 175 169 184 177 183 193 204 220 227 230
261 235 252 260 249 252 251 260 239 262 263 241 179 173 173 173 177 171 163 165 170 169 173 170 169 169 163 171 171 173 170 173 171 175 183 178 173 174 179 178 184 185 192 183 189 200 210 225 206
246 260 270 253 249 252 240 266 245 254 254 248 166 180 176 179 173 178 181 175 176 180 168 175 172 170 172 174 173 177 178 174 181 183 184 186 182 179 177 182 187 198 193 184 183 203 220 215 227
232 226 241 247 244 252 159 257 251 247 246 231 183 179 185 185 182 186 186 184 179 175 178 175 175 177 174 176 180 180 184 179 184 188 189 191 190 183 182 184 191 197 181 189 187 180 211 209 199
246 234 220 245 229 237 187 242 257 237 234 235 217 175 187 195 195 191 190 186 181 182 179 178 180 181 178 175 179 183 184 188 188 187 195 198 193 193 189 189 192 184 187 195 191 195 175 169 194
213 223 227 228 220 227 233 234 256 249 227 227 221 221 179 196 206 200 191 190 187 184 183 182 180 179 177 171 172 183 185 193 192 192 195 196 198 198 192 193 191 181 173 194 165 169 186 162 182
233 231 228 242 203 210 236 237 236 254 231 232 221 223 228 190 210 208 199 187 191 186 183 183 181 179 174 180 178 185 192 193 197 195 192 196 196 188 189 198 193 179 180 178 175 162 166 146 148
237 235 238 251 225 212 222 228 223 238 237 228 217 221 221 225 214 193 207 186 188 187 187 185 185 179 185 184 186 188 191 199 196 187 191 195 195 186 187 187 192 186 167 178 172 154 118 125 156
245 228 233 227 210 231 225 248 237 233 235 242 233 221 220 213 216 222 190 191 189 189 188 187 185 184 187 189 177 152 118 113 163 184 191 193 192 187 194 186 183 185 183 184 175 164 158 149 181
278 226 239 240 228 229 197 239 226 228 230 227 235 227 228 217 223 221 207 188 190 194 189 186 186 185 187 183 182 183 186 186 201 194 194 194 194 191 188 187 187 190 189 180 184 171 163 138 147
249 281 234 240 222 244 226 230 225 214 225 226 223 232 228 219 218 224 216 190 193 194 189 189 188 185 184 183 187 187 190 200 182 188 178 192 194 199 197 194 189 190 190 187 182 171 157 166 152
231 265 282 271 228 224 221 229 228 207 216 223 225 223 223 224 215 214 214 207 190 197 193 187 188 190 187 186 188 191 196 191 186 183 184 193 193 198 199 196 201 196 191 185 191 182 172 178 152
211 206 212 207 204 221 214 215 237 210 223 216 216 224 223 209 210 214 213 213 189 194 195 189 188 191 191 190 190 193 198 192 194 188 185 178 191 200 205 194 196 199 191 185 177 175 178 163 163
216 208 203 213 192 189 218 208 242 226 204 228 227 212 209 203 209 202 207 202 204 187 195 186 189 192 191 190 193 194 199 194 195 191 190 191 192 198 197 198 199 200 188 172 172 171 168 166 165
213 219 196 337 334 261 181 223 253 240 233 239 229 224 220 214 217 225 214 206 200 186 190 190 190 194 190 192 193 195 196 194 193 192 191 195 192 189 189 190 192 187 177 174 167 170 165 148 133
200 144 174 208 202 227 255 205 236 193 223 226 234 249 265 272 231 239 231 212 207 197 193 195 190 190 192 194 193 195 193 194 194 186 192 193 192 181 175 178 180 174 172 169 165 150 138 138 143
196 220 189 224 209 225 206 240 237 231 192 224 247 248 252 257 249 234 232 217 212 190 195 201 195 194 196 193 193 193 194 194 190 192 193 191 184 180 178 179 173 172 167 162 156 154 152 153 151
189 231 205 164 186 222 228 267 305 150 227 205 244 258 245 240 250 245 231 229 212 213 192 192 195 201 198 194 190 190 191 186 186 192 188 183 186 183 180 175 174 176 168 163 160 157 167 161 157